Location: Buckenweiler
(49.0667°N, 10.2500°E)
Time: 18:07:19
(UTC+00:00)

NOAA 12 - Pass Details

Date: 20 April 2026
Orbit: 792 x 813 km, 98.6° (Epoch: 12 May)

Event Time Altitude Azimuth Distance (km) Brightness Sun altitude
Rises 03:37:39 0° 22° (NNE) 3,327 8.1 -7.0°
Reaches altitude 10° 03:40:17 10° 33° (NNE) 2,387 7.6 -6.6°
Maximum altitude 03:44:54 30° 94° (E) 1,393 6.1 -5.9°
Drops below altitude 10° 03:49:28 10° 156° (SSE) 2,361 6.6 -5.2°
Sets 03:52:03 0° 167° (SSE) 3,283 7.2 -4.8°
